{"data":{"norad_id":47407,"intl_designator":"2021-005BL","name":"STARLINK-2134","alt_names":[],"object_type":"PAYLOAD","status":"ACTIVE","operator":null,"country":"US","launch_date":"2021-01-20","launch_site_code":"AFETR","launch_vehicle":null,"mission":null,"orbit_class":"UNKNOWN","rcs_meters":null,"size_class":null,"mass_kg":null,"dimensions":null,"purposes":["comms"],"wikipedia_slug":null,"has_3d_model":false,"image_url":null,"decayed_at":null,"tle_current":{"epoch":"2026-09-20T03:19:15.485952Z","epoch_age_seconds":57029,"freshness":"FRESH","line1":"1 47407U 21005BL  26263.13837368  .00020124  00000+0  60027-3 0  9994","line2":"2 47407  53.1575 213.4034 0003756  74.8917 285.2501 15.34652355313159","mean_motion":15.34652355,"eccentricity":0.0003756,"inclination_deg":53.1575,"raan_deg":213.4034,"arg_perigee_deg":74.8917,"mean_anomaly_deg":285.2501,"bstar":0.00060027,"rev_number":31315,"period_min":93.832325953717,"perigee_km":459.38415283521,"apogee_km":464.52242866162,"semimajor_km":6840.0902907484,"source":"CELESTRAK","updated_at":"2026-09-20T09:00:38.595960Z"}}}